Time,TemperatureF,DewpointF,PressureIn,WindDirection,WindDirectionDegrees,WindSpeedMPH,WindSpeedGustMPH,Humidity,HourlyPrecipIn,Conditions,Clouds,dailyrainin,SolarRadiationWatts/m^2,SoftwareType,DateUTC
2013-08-17 00:03:00,67.0,60.0,-100.00,East,99,1.0,3.0,79,0.00,,,0.00,0.000000,,2013-08-17 05:03:00,
2013-08-17 00:42:00,66.0,60.0,-100.00,North,3,1.0,4.0,82,0.00,,,0.00,0.000000,,2013-08-17 05:42:00,
2013-08-17 00:52:00,66.0,60.0,-100.00,North,3,1.0,4.0,82,0.00,,,0.00,0.000000,,2013-08-17 05:52:00,
2013-08-17 01:01:00,66.0,60.0,-100.00,North,3,1.0,4.0,82,0.00,,,0.00,0.000000,,2013-08-17 06:01:00,
2013-08-17 01:42:00,66.0,59.0,-100.00,NNE,18,1.0,3.0,79,0.00,,,0.00,0.000000,,2013-08-17 06:42:00,
2013-08-17 01:52:00,66.0,59.0,-100.00,NNE,18,1.0,3.0,79,0.00,,,0.00,0.000000,,2013-08-17 06:52:00,
2013-08-17 02:01:00,66.0,59.0,-100.00,NNE,18,1.0,3.0,79,0.00,,,0.00,0.000000,,2013-08-17 07:01:00,
2013-08-17 02:42:00,66.0,60.0,-100.00,East,85,1.0,3.0,81,0.00,,,0.00,0.000000,,2013-08-17 07:42:00,
2013-08-17 02:52:00,66.0,60.0,-100.00,East,85,1.0,3.0,81,0.00,,,0.00,0.000000,,2013-08-17 07:52:00,
2013-08-17 03:01:00,66.0,60.0,-100.00,East,85,1.0,3.0,81,0.00,,,0.00,0.000000,,2013-08-17 08:01:00,
2013-08-17 03:42:00,65.0,60.0,-100.00,North,11,1.0,3.0,84,0.00,,,0.00,0.000000,,2013-08-17 08:42:00,
2013-08-17 03:52:00,65.0,60.0,-100.00,North,11,1.0,3.0,84,0.00,,,0.00,0.000000,,2013-08-17 08:52:00,
2013-08-17 04:01:00,65.0,60.0,-100.00,North,11,1.0,3.0,84,0.00,,,0.00,0.000000,,2013-08-17 09:01:00,
2013-08-17 04:43:00,64.0,59.0,-100.00,NE,43,1.0,4.0,85,0.00,,,0.00,0.000000,,2013-08-17 09:43:00,
2013-08-17 04:53:00,64.0,59.0,-100.00,NE,43,1.0,4.0,85,0.00,,,0.00,0.000000,,2013-08-17 09:53:00,
2013-08-17 05:03:00,64.0,59.0,-100.00,NE,43,1.0,4.0,85,0.00,,,0.00,0.000000,,2013-08-17 10:03:00,
2013-08-17 05:42:00,65.0,59.0,-100.00,ENE,65,2.0,5.0,82,0.00,,,0.00,0.000000,,2013-08-17 10:42:00,
2013-08-17 05:53:00,65.0,59.0,-100.00,ENE,65,2.0,5.0,82,0.00,,,0.00,0.000000,,2013-08-17 10:53:00,
2013-08-17 06:02:00,65.0,59.0,-100.00,ENE,65,2.0,5.0,82,0.00,,,0.00,0.000000,,2013-08-17 11:02:00,
2013-08-17 06:42:00,65.0,60.0,-100.00,NE,38,2.0,5.0,85,0.00,,,0.00,0.000000,,2013-08-17 11:42:00,
2013-08-17 06:52:00,65.0,60.0,-100.00,NE,38,2.0,5.0,85,0.00,,,0.00,0.000000,,2013-08-17 11:52:00,
2013-08-17 07:01:00,65.0,60.0,-100.00,NE,38,2.0,5.0,85,0.00,,,0.00,0.000000,,2013-08-17 12:01:00,
2013-08-17 07:42:00,65.0,60.0,-100.00,ENE,57,2.0,4.0,85,0.00,,,0.00,17.000000,,2013-08-17 12:42:00,
2013-08-17 07:52:00,65.0,60.0,-100.00,ENE,57,2.0,4.0,85,0.00,,,0.00,17.000000,,2013-08-17 12:52:00,
2013-08-17 08:01:00,65.0,60.0,-100.00,ENE,57,2.0,4.0,85,0.00,,,0.00,17.000000,,2013-08-17 13:01:00,
2013-08-17 08:42:00,65.0,63.0,-100.00,NE,43,3.0,8.0,92,0.04,,,0.04,12.000000,,2013-08-17 13:42:00,
2013-08-17 08:52:00,65.0,63.0,-100.00,NE,43,3.0,8.0,92,0.04,,,0.04,12.000000,,2013-08-17 13:52:00,
2013-08-17 09:01:00,65.0,63.0,-100.00,NE,43,3.0,8.0,92,0.04,,,0.04,12.000000,,2013-08-17 14:01:00,
2013-08-17 09:42:00,65.0,64.0,-100.00,ESE,118,3.0,8.0,96,0.09,,,0.13,32.000000,,2013-08-17 14:42:00,
2013-08-17 09:52:00,65.0,64.0,-100.00,ESE,118,3.0,8.0,96,0.09,,,0.13,32.000000,,2013-08-17 14:52:00,
2013-08-17 10:01:00,65.0,64.0,-100.00,ESE,118,3.0,8.0,96,0.09,,,0.13,32.000000,,2013-08-17 15:01:00,
2013-08-17 10:44:00,64.0,63.0,-100.00,NE,36,2.0,7.0,97,0.04,,,0.17,34.000000,,2013-08-17 15:44:00,
2013-08-17 10:53:00,64.0,63.0,-100.00,NE,36,2.0,7.0,97,0.04,,,0.17,34.000000,,2013-08-17 15:53:00,
2013-08-17 11:03:00,64.0,63.0,-100.00,NE,36,2.0,7.0,97,0.04,,,0.17,34.000000,,2013-08-17 16:03:00,
2013-08-17 11:42:00,65.0,64.0,-100.00,SSE,152,0.0,6.0,97,0.05,,,0.22,85.000000,,2013-08-17 16:42:00,
2013-08-17 11:53:00,65.0,64.0,-100.00,SSE,152,0.0,6.0,97,0.05,,,0.22,85.000000,,2013-08-17 16:53:00,
2013-08-17 12:02:00,65.0,64.0,-100.00,SSE,152,0.0,6.0,97,0.05,,,0.22,85.000000,,2013-08-17 17:02:00,
2013-08-17 12:42:00,69.0,66.0,-100.00,ENE,72,3.0,7.0,91,0.04,,,0.26,353.000000,,2013-08-17 17:42:00,
2013-08-17 12:52:00,69.0,66.0,-100.00,ENE,72,3.0,7.0,91,0.04,,,0.26,353.000000,,2013-08-17 17:52:00,
2013-08-17 13:02:00,69.0,66.0,-100.00,ENE,72,3.0,7.0,91,0.04,,,0.26,353.000000,,2013-08-17 18:02:00,
2013-08-17 13:42:00,76.0,67.0,-100.00,NNE,29,4.0,9.0,74,0.07,,,0.33,891.000000,,2013-08-17 18:42:00,
2013-08-17 13:52:00,76.0,67.0,-100.00,NNE,29,4.0,9.0,74,0.07,,,0.33,891.000000,,2013-08-17 18:52:00,
2013-08-17 14:01:00,76.0,67.0,-100.00,NNE,29,4.0,9.0,74,0.07,,,0.33,891.000000,,2013-08-17 19:01:00,
2013-08-17 14:42:00,78.0,66.0,-100.00,NNE,18,5.0,11.0,66,0.02,,,0.35,865.000000,,2013-08-17 19:42:00,
2013-08-17 14:52:00,78.0,66.0,-100.00,NNE,18,5.0,11.0,66,0.02,,,0.35,865.000000,,2013-08-17 19:52:00,
2013-08-17 15:02:00,78.0,66.0,-100.00,NNE,18,5.0,11.0,66,0.02,,,0.35,865.000000,,2013-08-17 20:02:00,
2013-08-17 15:42:00,78.0,67.0,-100.00,NNE,20,4.0,11.0,69,0.00,,,0.35,350.000000,,2013-08-17 20:42:00,
2013-08-17 15:52:00,78.0,67.0,-100.00,NNE,20,4.0,11.0,69,0.00,,,0.35,350.000000,,2013-08-17 20:52:00,
2013-08-17 16:01:00,78.0,67.0,-100.00,NNE,20,4.0,11.0,69,0.00,,,0.35,350.000000,,2013-08-17 21:01:00,
2013-08-17 16:42:00,78.0,67.0,-100.00,North,8,5.0,10.0,68,0.00,,,0.35,507.000000,,2013-08-17 21:42:00,
2013-08-17 16:54:00,78.0,67.0,-100.00,North,8,5.0,10.0,68,0.00,,,0.35,507.000000,,2013-08-17 21:54:00,
2013-08-17 17:03:00,78.0,67.0,-100.00,North,8,5.0,10.0,68,0.00,,,0.35,507.000000,,2013-08-17 22:03:00,
2013-08-17 17:42:00,70.0,65.0,-100.00,ENE,76,6.0,18.0,84,0.01,,,0.36,202.000000,,2013-08-17 22:42:00,
2013-08-17 17:52:00,70.0,65.0,-100.00,ENE,76,6.0,18.0,84,0.01,,,0.36,202.000000,,2013-08-17 22:52:00,
2013-08-17 18:02:00,70.0,65.0,-100.00,ENE,76,6.0,18.0,84,0.01,,,0.36,202.000000,,2013-08-17 23:02:00,
2013-08-17 18:42:00,68.0,67.0,-100.00,East,86,2.0,8.0,98,0.13,,,0.49,11.000000,,2013-08-17 23:42:00,
2013-08-17 18:52:00,68.0,67.0,-100.00,East,86,2.0,8.0,98,0.13,,,0.49,11.000000,,2013-08-17 23:52:00,
2013-08-17 19:01:00,68.0,67.0,-100.00,East,86,2.0,8.0,98,0.13,,,0.49,11.000000,,2013-08-18 00:01:00,
2013-08-17 19:42:00,68.0,68.0,-100.00,North,360,2.0,5.0,99,0.09,,,0.58,10.000000,,2013-08-18 00:42:00,
2013-08-17 19:52:00,68.0,68.0,-100.00,North,360,2.0,5.0,99,0.09,,,0.58,10.000000,,2013-08-18 00:52:00,
2013-08-17 20:01:00,68.0,68.0,-100.00,North,360,2.0,5.0,99,0.09,,,0.58,10.000000,,2013-08-18 01:01:00,
2013-08-17 20:42:00,67.0,66.0,-100.00,ENE,77,1.0,5.0,98,0.08,,,0.66,3.000000,,2013-08-18 01:42:00,
2013-08-17 20:52:00,67.0,66.0,-100.00,ENE,77,1.0,5.0,98,0.08,,,0.66,3.000000,,2013-08-18 01:52:00,
2013-08-17 21:02:00,67.0,66.0,-100.00,ENE,77,1.0,5.0,98,0.08,,,0.66,3.000000,,2013-08-18 02:02:00,
2013-08-17 21:42:00,66.0,65.0,-100.00,NNE,23,0.0,4.0,98,0.06,,,0.72,0.000000,,2013-08-18 02:42:00,
2013-08-17 21:52:00,66.0,65.0,-100.00,NNE,23,0.0,4.0,98,0.06,,,0.72,0.000000,,2013-08-18 02:52:00,
2013-08-17 22:02:00,66.0,65.0,-100.00,NNE,23,0.0,4.0,98,0.06,,,0.72,0.000000,,2013-08-18 03:02:00,
2013-08-17 22:43:00,66.0,66.0,-100.00,North,6,0.0,2.0,99,0.04,,,0.76,0.000000,,2013-08-18 03:43:00,
2013-08-17 22:53:00,66.0,66.0,-100.00,North,6,0.0,2.0,99,0.04,,,0.76,0.000000,,2013-08-18 03:53:00,
2013-08-17 23:02:00,-999.0,-99.9,-100.00,North,6,0.0,2.0,-999,0.04,,,0.76,0.000000,,2013-08-18 04:02:00,
2013-08-17 23:42:00,66.0,64.0,-100.00,North,4,1.0,8.0,94,0.04,,,0.80,0.000000,,2013-08-18 04:42:00,
2013-08-17 23:53:00,66.0,64.0,-100.00,North,4,1.0,8.0,94,0.04,,,0.80,0.000000,,2013-08-18 04:53:00,